Theta_e
316 318 318 317 314 316 317 315 312 310 311 310 308 308 308 308 310 311 311 311 311 337 338 338 337 338 338 338 340 336 344 344 345 347 348 345 344 344 340 338 336 345 344 344
319 321 318 317 317 318 318 317 312 312 312 310 309 309 309 308 309 310 312 312 310 312 324 337 340 339 336 335 337 339 336 343 345 345 345 345 344 344 345 342 343 344 339 333
322 322 320 319 319 320 318 316 312 313 313 312 313 311 311 311 310 311 310 311 312 310 313 332 332 332 334 333 334 335 336 337 339 341 344 341 340 339 337 337 336 336 336 335
322 321 321 320 320 318 320 316 315 314 313 312 312 312 311 311 312 314 310 309 310 310 311 328 330 328 330 331 332 333 334 335 337 337 340 338 334 334 336 336 334 335 334 334
322 322 323 322 320 318 319 318 316 315 312 312 312 313 312 313 317 321 321 315 310 310 308 318 326 328 329 328 328 330 333 334 335 337 336 336 335 334 334 331 331 333 334 335
321 319 321 321 320 319 318 316 315 313 310 311 311 312 312 313 316 320 321 320 322 323 323 319 323 327 326 327 329 333 336 338 337 337 338 336 334 334 334 335 339 334 335 330
322 322 320 320 320 319 318 315 312 312 310 313 310 312 313 326 325 322 321 324 326 325 326 328 327 325 330 334 335 335 339 333 337 338 336 332 331 333 332 331 330 332 329 332
327 326 322 320 320 320 319 313 310 313 313 312 312 313 326 325 325 327 327 327 326 326 325 324 323 325 325 324 324 325 325 323 323 322 322 322 322 322 322 323 321 319 318 318
327 328 321 320 319 320 320 317 310 312 315 313 327 329 325 328 326 327 327 327 327 325 324 323 321 321 321 320 320 321 321 321 321 320 320 319 319 318 318 318 318 316 315 315
325 322 320 321 320 319 316 313 312 312 319 319 330 332 330 330 328 326 326 326 325 324 323 322 320 320 319 318 318 317 317 317 317 317 316 316 316 315 315 315 314 314 314 313
324 322 324 320 323 322 320 313 312 313 318 322 329 334 329 329 327 326 323 321 320 320 318 317 315 314 312 311 312 313 314 314 314 314 313 312 312 313 313 313 313 312 311 310
324 322 324 323 321 319 318 312 313 317 327 323 323 330 327 326 326 324 323 321 318 315 312 310 309 308 308 308 309 309 310 310 310 311 311 311 312 312 312 311 309 309 308 306
324 328 322 324 322 321 322 319 313 318 322 326 323 329 325 326 325 325 321 319 315 311 310 309 309 308 308 307 307 308 308 308 309 310 310 311 310 309 308 307 306 306 305 304
323 324 319 321 323 320 321 318 317 320 322 326 324 330 330 327 326 326 321 314 313 312 310 308 306 305 307 306 306 306 307 308 309 309 309 308 307 306 306 305 305 304 304 303
325 324 324 328 328 326 322 320 321 319 321 323 327 329 328 326 325 324 316 313 312 311 309 307 306 304 305 304 304 304 305 306 307 306 305 304 304 305 305 304 304 304 304 303
320 327 325 327 327 327 329 322 321 324 326 326 328 330 327 323 321 318 315 313 311 309 308 306 304 303 302 301 301 302 303 303 304 303 303 303 303 303 303 303 303 303 303 304
320 324 322 328 327 328 328 329 327 327 327 328 328 326 326 323 318 313 311 309 307 306 305 302 300 299 299 299 300 300 301 301 301 301 301 301 301 302 302 302 302 303 304 304
320 324 323 328 328 329 326 326 328 329 327 326 327 327 324 311 308 307 306 305 304 302 300 298 297 296 296 296 297 298 298 298 298 298 298 299 300 301 302 302 302 303 304 305
320 320 326 328 328 329 329 328 328 329 329 326 326 313 309 307 306 303 301 300 299 298 296 296 294 293 293 293 294 295 295 295 295 296 296 298 300 301 301 301 302 304 304 306
321 321 324 325 329 334 328 326 322 321 323 319 314 312 311 315 315 303 299 298 296 295 294 294 292 291 291 292 293 294 294 294 294 294 296 298 299 300 300 300 302 303 304 305
325 326 322 323 328 327 323 323 322 325 323 315 312 312 309 305 303 298 296 295 294 293 293 291 291 290 290 291 292 293 293 292 292 293 294 296 297 298 299 299 302 303 304 305
321 324 325 322 326 329 323 322 322 315 309 307 305 303 301 298 297 295 294 293 292 291 290 290 290 290 290 290 291 292 291 291 291 291 293 295 296 296 298 300 302 303 304 305
322 321 319 316 314 311 310 309 307 307 306 304 302 300 299 296 294 293 292 291 291 290 290 290 290 290 290 290 290 291 291 292 292 291 292 293 294 295 297 299 300 302 303 304
317 313 310 310 307 307 306 304 303 303 301 300 299 297 295 293 293 292 291 290 290 289 289 289 290 290 290 291 291 292 292 292 291 291 292 293 293 294 296 298 299 301 300 302
315 310 307 307 306 305 303 302 301 299 298 296 295 294 293 293 293 292 292 291 290 290 289 289 289 290 290 290 291 291 291 291 290 291 292 291 292 293 294 296 298 299 299 298
314 310 312 311 307 305 302 301 299 298 296 295 294 293 292 292 292 291 291 291 290 290 290 290 290 289 289 290 290 290 291 290 290 290 291 290 291 291 292 294 297 297 297 296
Wind_Speed
15 11 23 21 17 7 6 6 5 5 7 6 6 5 11 9 6 6 8 7 8 11 16 17 25 25 25 29 30 28 32 36 36 32 30 29 29 27 23 29 34 35 28 32
9 28 16 15 16 16 15 11 5 4 5 3 7 9 10 7 6 8 10 8 10 6 6 11 19 25 29 31 31 33 35 38 39 36 35 25 26 22 26 34 37 36 27 13
24 5 18 17 20 19 17 14 6 6 4 2 2 9 5 7 5 5 7 8 5 13 12 11 10 23 28 32 35 36 38 37 39 39 32 19 13 14 18 23 23 23 30 34
16 21 24 24 22 16 20 10 8 9 2 2 3 4 6 6 6 1 8 7 10 9 7 9 11 12 24 37 38 37 30 27 26 28 26 23 15 14 22 25 22 22 24 23
15 20 20 23 24 15 12 12 10 9 5 0 2 2 7 3 4 3 4 7 8 6 10 15 14 23 27 16 16 14 13 11 15 21 22 22 21 18 12 5 9 10 13 13
17 16 20 15 17 20 7 7 7 3 4 5 5 7 6 2 5 3 4 9 10 8 8 6 7 13 17 15 14 11 10 6 5 9 8 7 6 5 8 13 13 12 8 9
20 18 17 19 16 14 15 9 2 2 3 5 9 5 2 8 8 4 8 8 8 10 10 11 11 8 17 22 21 21 22 20 16 14 14 14 11 7 8 10 11 9 11 6
12 17 17 16 15 8 18 9 5 6 5 5 7 6 2 4 3 8 12 10 10 13 10 14 13 16 21 24 30 32 33 32 30 28 27 25 23 22 21 19 15 16 11 11
7 5 16 14 8 19 10 13 9 4 1 5 6 3 4 5 10 12 12 13 11 11 12 14 14 20 22 24 27 33 33 29 25 24 22 20 17 16 16 13 12 11 6 7
4 4 8 23 18 13 10 10 7 2 4 4 1 4 5 2 7 9 11 12 11 11 14 14 13 18 22 27 30 28 28 27 25 23 21 18 15 14 13 12 10 7 7 7
5 2 3 7 7 21 8 8 4 7 2 5 4 2 4 4 4 13 10 7 7 10 11 12 11 19 23 26 26 26 26 24 23 23 20 19 17 13 11 14 13 12 10 11
8 3 3 5 5 13 5 6 6 5 3 3 4 2 1 4 3 7 10 10 8 11 10 12 13 20 22 24 28 30 28 25 21 19 18 17 15 14 14 11 11 13 16 15
11 4 4 3 4 1 5 5 6 6 4 4 6 3 3 5 5 6 13 12 13 12 13 11 10 12 15 19 23 25 23 21 20 19 17 17 15 14 12 10 11 12 12 13
9 3 3 5 7 4 5 6 11 7 4 5 3 9 7 9 9 7 8 11 13 14 12 10 9 9 14 16 20 21 22 22 22 21 18 16 14 12 9 8 8 9 11 13
3 4 1 6 6 4 4 11 9 6 8 6 8 13 15 12 8 6 12 14 16 13 12 10 8 6 13 15 19 25 25 20 16 17 18 15 11 10 10 11 12 14 15 15
5 3 1 4 7 6 4 7 13 5 7 10 17 9 9 7 7 12 14 15 15 13 12 11 10 12 14 17 21 21 20 16 14 15 14 11 11 11 12 14 15 15 15 18
3 2 3 1 4 6 4 3 6 5 2 20 7 10 17 13 14 12 14 15 14 12 11 11 10 11 15 20 18 17 14 13 13 12 11 12 12 12 13 14 14 15 18 21
4 2 2 5 5 3 2 4 6 15 7 16 22 19 19 20 18 16 12 14 13 11 10 9 11 15 19 18 17 13 12 12 12 12 12 11 12 12 14 16 15 16 17 20
2 3 3 4 3 4 6 5 2 11 9 9 25 23 22 22 22 16 13 14 13 11 10 12 14 13 15 15 13 11 13 12 11 13 13 13 11 12 13 14 16 15 18 19
7 4 1 3 5 4 2 6 17 11 5 4 16 21 23 17 7 3 8 11 12 14 13 13 14 14 16 15 13 13 13 11 13 13 13 12 10 11 12 13 13 14 15 17
5 2 4 4 4 3 6 12 4 4 7 11 11 10 6 5 7 13 10 11 13 13 14 12 12 16 16 15 13 11 10 13 13 12 12 11 10 12 10 14 12 13 15 18
3 3 2 3 4 5 1 6 4 11 10 17 13 15 21 17 15 14 11 10 12 12 15 17 17 15 15 14 13 12 14 15 15 12 10 9 10 11 10 11 11 11 14 16
2 1 4 6 2 3 12 16 13 18 17 12 16 14 18 16 13 10 9 8 11 13 13 14 14 14 18 18 16 14 15 14 16 14 10 9 11 9 8 9 11 13 16 17
4 2 6 4 9 17 19 17 16 17 19 16 16 15 15 16 11 10 8 7 10 14 15 15 15 15 15 17 15 14 14 15 15 12 10 9 10 11 10 10 10 15 17 16
2 4 9 18 15 22 17 17 20 19 19 18 16 15 15 15 12 10 9 10 12 11 11 11 11 12 13 15 15 14 15 15 12 9 9 9 8 11 12 11 10 15 17 18
5 5 4 8 10 17 13 13 16 20 16 15 18 15 13 15 13 13 9 8 8 9 9 11 11 12 14 14 15 15 15 15 14 10 12 12 11 11 13 14 11 9 12 13
Wind_Direction
183 199 207 196 201 184 218 226 210 190 239 201 244 231 256 258 241 232 225 197 209 194 217 211 212 210 215 221 215 210 199 199 194 190 193 198 206 212 222 232 224 228 243 242
168 218 201 198 197 206 229 237 213 269 264 175 278 268 257 261 232 213 225 207 200 227 219 202 197 202 212 215 216 212 208 204 203 202 207 207 212 219 217 214 227 237 228 218
200 211 191 199 199 202 213 216 167 200 11 275 356 305 295 274 220 215 244 242 199 184 203 213 189 196 204 214 220 219 216 211 211 213 215 216 224 238 224 223 227 232 234 248
221 232 187 193 211 191 213 177 193 233 123 217 115 271 304 260 230 208 249 245 244 178 189 207 198 193 201 215 217 218 221 219 213 216 206 199 192 207 231 242 254 258 266 264
200 184 209 203 202 201 210 178 195 222 176 304 244 42 271 301 116 204 250 270 276 285 182 189 194 202 205 203 212 218 217 199 197 201 209 215 222 226 224 283 270 246 252 280
207 183 204 211 203 201 137 161 200 169 117 241 205 159 281 357 314 201 84 32 23 7 27 79 196 176 151 165 166 163 158 150 182 192 198 221 250 245 266 277 293 277 267 244
197 217 193 187 188 191 177 155 174 195 191 210 157 151 240 309 304 310 98 53 28 31 42 53 66 77 107 114 122 121 124 102 102 103 98 102 98 94 78 65 86 114 104 134
193 208 208 187 202 169 190 154 163 170 152 158 143 198 247 311 3 67 80 83 62 62 63 66 67 79 82 90 98 102 99 96 92 91 90 91 92 93 92 90 82 62 52 89
159 240 193 213 188 170 186 197 200 66 285 110 145 114 106 49 52 62 72 74 71 74 74 76 76 81 87 86 95 102 103 102 99 97 97 94 94 87 82 81 83 80 33 25
174 162 229 204 216 236 167 167 178 120 178 126 156 128 147 101 91 87 84 89 87 85 80 78 77 76 83 92 97 97 97 97 98 96 90 87 79 70 71 77 74 83 56 32
198 145 224 186 157 206 205 186 163 136 148 148 133 187 167 169 152 129 121 102 100 91 82 84 83 80 82 87 90 91 94 96 95 92 92 89 84 82 73 67 64 54 39 17
189 165 134 158 110 174 145 198 157 155 210 55 116 231 98 153 132 135 122 118 106 95 85 91 84 87 84 82 83 84 84 83 80 78 73 69 69 69 72 61 44 20 8 355
173 212 99 91 79 121 149 188 136 112 108 173 118 184 154 135 139 117 123 121 107 97 92 88 85 85 89 89 85 80 75 76 76 74 73 75 79 78 67 45 27 21 6 353
137 95 142 152 152 145 155 154 173 134 118 151 148 143 171 178 160 128 119 114 111 108 97 84 71 66 79 78 77 77 72 67 69 77 80 78 72 66 55 48 34 13 2 2
99 128 100 99 84 136 150 148 152 135 147 134 172 155 181 158 148 131 125 114 107 100 94 87 75 63 66 69 64 62 60 61 70 76 73 67 59 45 40 20 2 357 352 352
0 89 59 33 41 44 71 165 157 112 114 81 120 88 129 114 115 119 114 110 102 99 90 80 69 61 50 50 51 52 48 50 54 56 51 39 29 28 18 4 358 350 351 350
54 52 75 287 16 360 89 334 107 98 143 138 145 157 128 118 92 96 100 97 90 84 81 75 66 59 51 52 54 46 45 43 38 32 20 14 15 17 9 0 354 352 350 346
132 97 82 138 91 177 313 256 118 92 82 105 113 131 121 105 87 78 76 94 90 83 75 67 59 50 49 44 43 44 41 35 26 16 8 8 8 6 357 351 350 349 343 343
113 116 107 137 113 101 91 146 121 117 58 122 122 116 118 112 90 59 66 77 84 79 68 75 72 60 49 37 27 32 31 28 22 12 4 2 5 354 347 344 342 344 344 344
159 237 205 106 109 184 129 111 117 89 69 138 123 136 143 146 121 119 86 80 78 75 73 68 55 44 35 26 24 37 35 25 13 2 358 360 0 352 341 337 341 346 348 343
162 174 100 89 97 51 149 136 295 112 165 124 135 131 91 80 88 114 100 79 75 66 60 59 51 48 34 25 24 27 20 8 352 346 351 354 352 345 334 336 347 348 355 3
118 108 89 91 100 134 25 332 156 132 92 101 89 103 102 102 96 94 86 75 62 50 40 36 37 36 25 21 20 11 5 355 351 347 350 348 345 340 335 343 354 0 5 4
54 350 99 49 36 38 65 91 88 104 109 108 110 107 111 102 95 93 86 68 58 51 40 33 29 25 21 17 13 358 349 349 346 346 347 348 343 350 354 354 2 9 10 5
72 41 100 91 48 84 94 80 80 88 96 98 95 96 92 97 91 87 78 67 57 47 35 30 28 19 11 8 5 357 347 347 340 343 350 349 351 356 3 8 20 30 12 13
33 89 100 97 101 84 69 86 97 89 89 91 86 94 101 105 92 86 76 64 54 48 36 31 27 12 7 7 5 1 4 353 352 354 356 358 359 2 3 19 31 38 54 53
4 127 112 117 90 108 103 97 97 99 97 97 100 92 85 95 102 99 88 85 74 51 36 31 16 18 9 8 3 6 8 4 6 6 6 4 3 8 14 16 30 58 62 41